TimeMDT,TemperatureF,Dew PointF,Humidity,Sea Level PressureIn,VisibilityMPH,Wind Direction,Wind SpeedMPH,Gust SpeedMPH,PrecipitationIn,Events,Conditions,WindDirDegrees,DateUTC
12:15 AM,23.0,19.0,85,30.24,10.0,Calm,Calm,-,N/A,,Clear,0,2013-10-19 06:15:00
12:35 AM,22.8,18.3,83,30.24,10.0,Calm,Calm,-,N/A,,Clear,0,2013-10-19 06:35:00
12:55 AM,21.9,18.0,85,30.25,10.0,Calm,Calm,-,N/A,,Clear,0,2013-10-19 06:55:00
1:15 AM,23.7,17.6,77,30.25,10.0,Calm,Calm,-,N/A,,Clear,0,2013-10-19 07:15:00
1:35 AM,22.5,17.2,80,30.24,10.0,WSW,5.8,-,N/A,,Clear,250,2013-10-19 07:35:00
1:55 AM,25.9,16.7,68,30.24,10.0,Calm,Calm,-,N/A,,Clear,0,2013-10-19 07:55:00
2:15 AM,32.0,17.1,54,30.24,10.0,WSW,4.6,-,N/A,,Clear,240,2013-10-19 08:15:00
2:35 AM,27.7,16.2,62,30.25,10.0,Calm,Calm,-,N/A,,Clear,0,2013-10-19 08:35:00
2:55 AM,26.4,16.5,66,30.24,10.0,Calm,Calm,-,N/A,,Clear,0,2013-10-19 08:55:00
3:15 AM,26.4,16.9,67,30.24,10.0,Calm,Calm,-,N/A,,Clear,0,2013-10-19 09:15:00
3:35 AM,24.3,17.1,74,30.24,10.0,Calm,Calm,-,N/A,,Clear,0,2013-10-19 09:35:00
3:55 AM,23.5,17.2,77,30.24,10.0,Calm,Calm,-,N/A,,Clear,0,2013-10-19 09:55:00
4:15 AM,22.3,16.3,78,30.24,10.0,Calm,Calm,-,N/A,,Clear,0,2013-10-19 10:15:00
4:35 AM,20.7,16.2,83,30.24,10.0,Calm,Calm,-,N/A,,Clear,0,2013-10-19 10:35:00
4:55 AM,20.1,16.0,84,30.24,10.0,Calm,Calm,-,N/A,,Clear,0,2013-10-19 10:55:00
5:15 AM,19.2,15.4,85,30.24,10.0,Calm,Calm,-,N/A,,Clear,0,2013-10-19 11:15:00
5:35 AM,18.9,15.1,85,30.25,10.0,Calm,Calm,-,N/A,,Clear,0,2013-10-19 11:35:00
5:55 AM,19.4,15.6,85,30.25,10.0,Calm,Calm,-,N/A,,Clear,0,2013-10-19 11:55:00
6:15 AM,19.2,16.2,88,30.26,10.0,Calm,Calm,-,N/A,,Clear,0,2013-10-19 12:15:00
6:35 AM,17.8,14.2,86,30.26,10.0,Calm,Calm,-,N/A,,Clear,0,2013-10-19 12:35:00
6:55 AM,15.8,13.1,89,30.27,10.0,Calm,Calm,-,N/A,,Clear,0,2013-10-19 12:55:00
7:15 AM,16.3,13.8,90,30.27,10.0,Calm,Calm,-,N/A,,Clear,0,2013-10-19 13:15:00
7:35 AM,17.2,14.2,88,30.27,10.0,Calm,Calm,-,N/A,,Clear,0,2013-10-19 13:35:00
7:55 AM,18.9,16.0,89,30.27,10.0,Calm,Calm,-,N/A,,Clear,0,2013-10-19 13:55:00
8:15 AM,22.8,19.0,85,30.27,10.0,Calm,Calm,-,N/A,,Clear,0,2013-10-19 14:15:00
8:35 AM,23.7,19.6,84,30.27,10.0,Calm,Calm,-,N/A,,Clear,0,2013-10-19 14:35:00
8:55 AM,27.0,20.3,76,30.26,10.0,Calm,Calm,-,N/A,,Clear,0,2013-10-19 14:55:00
9:15 AM,28.8,20.5,71,30.26,10.0,Calm,Calm,-,N/A,,Clear,0,2013-10-19 15:15:00
9:35 AM,31.1,21.6,68,30.26,10.0,Calm,Calm,-,N/A,,Clear,0,2013-10-19 15:35:00
9:55 AM,33.3,21.2,61,30.25,10.0,Calm,Calm,-,N/A,,Clear,0,2013-10-19 15:55:00
10:15 AM,38.1,20.8,50,30.25,10.0,Calm,Calm,-,N/A,,Clear,0,2013-10-19 16:15:00
10:35 AM,40.6,14.9,35,30.24,10.0,Calm,Calm,-,N/A,,Clear,0,2013-10-19 16:35:00
10:55 AM,42.3,13.6,31,30.24,10.0,Calm,Calm,-,N/A,,Clear,0,2013-10-19 16:55:00
12:55 PM,48.2,16.2,28,30.20,10.0,WSW,13.8,-,N/A,,Clear,250,2013-10-19 18:55:00
1:15 PM,48.9,17.2,28,30.20,10.0,WSW,13.8,-,N/A,,Clear,250,2013-10-19 19:15:00
1:35 PM,48.4,17.2,29,30.19,10.0,WSW,15.0,20.7,N/A,,Clear,250,2013-10-19 19:35:00
1:55 PM,49.8,18.9,29,30.19,10.0,West,15.0,19.6,N/A,,Clear,270,2013-10-19 19:55:00
2:15 PM,50.7,18.5,28,30.18,10.0,West,15.0,21.9,N/A,,Clear,260,2013-10-19 20:15:00
2:35 PM,50.2,18.1,28,30.18,10.0,West,16.1,19.6,N/A,,Clear,260,2013-10-19 20:35:00
2:55 PM,50.2,17.4,27,30.17,10.0,West,13.8,-,N/A,,Clear,260,2013-10-19 20:55:00
3:15 PM,50.4,17.4,27,30.17,10.0,West,15.0,18.4,N/A,,Clear,270,2013-10-19 21:15:00
3:35 PM,50.5,18.0,28,30.17,10.0,West,13.8,18.4,N/A,,Clear,280,2013-10-19 21:35:00
3:55 PM,50.2,16.9,27,30.17,10.0,West,13.8,18.4,N/A,,Clear,270,2013-10-19 21:55:00
4:15 PM,50.4,16.9,27,30.17,10.0,West,11.5,-,N/A,,Clear,270,2013-10-19 22:15:00
4:35 PM,50.0,16.7,27,30.16,10.0,West,12.7,19.6,N/A,,Clear,270,2013-10-19 22:35:00
4:55 PM,49.1,17.1,28,30.16,10.0,WSW,12.7,-,N/A,,Clear,250,2013-10-19 22:55:00
5:15 PM,48.2,16.2,28,30.17,10.0,WSW,10.4,18.4,N/A,,Clear,250,2013-10-19 23:15:00
5:35 PM,47.3,15.3,28,30.17,10.0,WSW,8.1,-,N/A,,Clear,240,2013-10-19 23:35:00
5:55 PM,46.4,15.1,28,30.16,10.0,WSW,5.8,-,N/A,,Clear,250,2013-10-19 23:55:00
6:15 PM,45.7,13.8,28,30.16,10.0,South,3.5,-,N/A,,Clear,170,2013-10-20 00:15:00
6:35 PM,44.8,14.2,29,30.16,10.0,SW,8.1,-,N/A,,Clear,220,2013-10-20 00:35:00
6:55 PM,44.4,14.9,30,30.17,10.0,SW,6.9,-,N/A,,Clear,220,2013-10-20 00:55:00
7:15 PM,43.3,15.3,32,30.17,10.0,WSW,5.8,-,N/A,,Clear,250,2013-10-20 01:15:00
7:35 PM,43.2,14.9,32,30.17,10.0,WSW,5.8,-,N/A,,Clear,250,2013-10-20 01:35:00
7:55 PM,41.0,16.0,36,30.16,10.0,WSW,8.1,-,N/A,,Clear,240,2013-10-20 01:55:00
8:15 PM,43.2,14.5,31,30.17,10.0,Calm,Calm,-,N/A,,Clear,0,2013-10-20 02:15:00
8:35 PM,43.2,14.7,32,30.18,10.0,SSE,8.1,-,N/A,,Clear,160,2013-10-20 02:35:00
8:55 PM,41.9,14.7,33,30.18,10.0,South,3.5,-,N/A,,Clear,190,2013-10-20 02:55:00
9:15 PM,38.5,17.2,42,30.18,10.0,SSE,4.6,-,N/A,,Clear,160,2013-10-20 03:15:00
9:35 PM,41.0,15.4,36,30.18,10.0,Calm,Calm,-,N/A,,Clear,0,2013-10-20 03:35:00
9:55 PM,39.9,15.6,37,30.18,10.0,SSE,8.1,-,N/A,,Clear,160,2013-10-20 03:55:00
10:15 PM,40.5,15.1,36,30.18,10.0,SSE,11.5,-,N/A,,Clear,150,2013-10-20 04:15:00
10:35 PM,40.3,15.8,37,30.18,10.0,SSE,9.2,17.3,N/A,,Clear,160,2013-10-20 04:35:00
10:55 PM,35.8,17.2,47,30.18,10.0,WSW,5.8,-,N/A,,Clear,240,2013-10-20 04:55:00
11:15 PM,31.1,18.9,61,30.18,10.0,Calm,Calm,-,N/A,,Clear,0,2013-10-20 05:15:00
11:35 PM,35.8,16.5,46,30.18,10.0,SSW,5.8,-,N/A,,Clear,200,2013-10-20 05:35:00
11:55 PM,36.3,17.1,46,30.17,10.0,South,9.2,-,N/A,,Clear,190,2013-10-20 05:55:00